星链-30607 (STARLINK-30607 )

导读

STARLINK-30607是美国SpaceX公司星链星座的卫星成员,于2023年10月21日发射升空。星链项目旨在构建全球卫星互联网星座,为全球偏远地区等提供高速低延迟网络服务,该卫星的入轨进一步扩充了星链星座的服务覆盖范围与组网规模。

基本信息
目录编号:
58099
目录名称:
STARLINK-30607
国际标识:
2023-161C
轨道中心:
EARTH
卫星名称:
星链-30607
卫星全名:
星链-30607 (STARLINK-30607 )
卫星状态:
在轨 (已飞行1049 天)
发射日期:
2023-10-21 UTC
国别 :
美国 (US)
星等 :
--
轨道信息
数据来源 国际轨道数据
星历时间: 2026-09-04T04:57:13+0800
16小时前
查看轨道信息
半长轴: 6840.852km
偏心率: 0.0001208
轨道倾角: 53.162°
近地点辐角 95.072°
升交点赤经 47.088°
平近点角 265.042°
近地点: 461.888km
远地点: 463.542km
周期: 93.848分钟
每日圈数: 15.343962
详细信息
固有亮度:
5
最大亮度:
0.3
卫星平台:
Starlink v2.0 mini
覆盖范围:
全球
运营商:
太空探索技术公司
运营商所在国:
美国
制造商(研发单位):
太空探索技术公司
制造商所在国:
美国
使用方式:
暂无
卫星简介
星链(Starlink)计划是由太空探索技术公司(SpaceX)提出的一个巨型低轨卫星互联网星座项目,计划在2019年至2024年间在太空搭建由约1.2万颗卫星组成的“星链”网络,其中1584颗将部署在地球上空550千米处的近地轨道,并从2020年开始工作。该卫星仍在工作。
2D轨道图
3D轨道图
轨道高度分析图
轨道倾角分析图
轨道综合分析图
查看轨道综合分析图
交会数据列表
事件ID 空间交会对象 最接近时刻(TCA) 交会距离 交会风险概率(CRP) 交会风险指数(CRI) 操作
CDM_260828-191305-702305-809922
OBJECT V (57023)
2026-08-28T
19:13:33+0000
2.673 km
极远距离
1.291914E-6 低风险 0.37
CDM_260906-211805-084005-809921
2026-09-06T
21:18:28+0000
2.762 km
极远距离
7.397261E-7 极低风险 0.32
CDM_260905-074305-254905-809921
2026-09-05T
07:43:33+0000
2.872 km
极远距离
3.455774E-7 极低风险 0.26